Time,TemperatureF,DewpointF,PressureIn,WindDirection,WindDirectionDegrees,WindSpeedMPH,WindSpeedGustMPH,Humidity,HourlyPrecipIn,Conditions,Clouds,dailyrainin,SoftwareType,DateUTC
2013-03-25 00:02:00,19.2,1.8,24.23,SSE,158,9.0,13.0,46,0.00,,,0.00,meteohub,2013-03-25 06:02:00,
2013-03-25 00:12:00,18.1,2.7,24.22,SSE,158,12.0,12.0,50,0.00,,,0.00,meteohub,2013-03-25 06:12:00,
2013-03-25 00:17:00,17.8,2.7,24.22,South,180,11.0,12.0,51,0.00,,,0.00,meteohub,2013-03-25 06:17:00,
2013-03-25 00:22:00,17.6,3.0,24.22,South,180,11.0,12.0,52,0.00,,,0.00,meteohub,2013-03-25 06:22:00,
2013-03-25 00:27:00,17.6,2.5,24.22,South,180,11.0,12.0,51,0.00,,,0.00,meteohub,2013-03-25 06:27:00,
2013-03-25 00:32:00,17.6,3.0,24.22,SSE,158,11.0,12.0,52,0.00,,,0.00,meteohub,2013-03-25 06:32:00,
2013-03-25 00:37:00,17.6,2.5,24.22,South,180,11.0,11.0,51,0.00,,,0.00,meteohub,2013-03-25 06:37:00,
2013-03-25 00:42:00,17.6,3.0,24.22,South,180,13.0,13.0,52,0.00,,,0.00,meteohub,2013-03-25 06:42:00,
2013-03-25 00:47:00,17.1,2.8,24.22,South,180,15.0,15.0,53,0.00,,,0.00,meteohub,2013-03-25 06:47:00,
2013-03-25 00:52:00,16.9,3.6,24.22,South,180,17.0,17.0,55,0.00,,,0.00,meteohub,2013-03-25 06:52:00,
2013-03-25 00:57:00,16.9,3.6,24.22,South,180,16.0,17.0,55,0.00,,,0.00,meteohub,2013-03-25 06:57:00,
2013-03-25 01:02:00,16.9,3.6,24.22,South,180,15.0,17.0,55,0.00,,,0.00,meteohub,2013-03-25 07:02:00,
2013-03-25 01:12:00,16.7,3.7,24.22,South,180,14.0,16.0,56,0.00,,,0.00,meteohub,2013-03-25 07:12:00,
2013-03-25 01:17:00,16.3,3.7,24.22,South,180,11.0,16.0,57,0.00,,,0.00,meteohub,2013-03-25 07:17:00,
2013-03-25 01:22:00,16.3,3.4,24.22,South,180,12.0,17.0,56,0.00,,,0.00,meteohub,2013-03-25 07:22:00,
2013-03-25 01:27:00,16.2,3.6,24.21,South,180,14.0,17.0,57,0.00,,,0.00,meteohub,2013-03-25 07:27:00,
2013-03-25 01:32:00,16.3,3.7,24.22,South,180,15.0,15.0,57,0.00,,,0.00,meteohub,2013-03-25 07:32:00,
2013-03-25 01:37:00,16.3,3.7,24.22,South,180,15.0,15.0,57,0.00,,,0.00,meteohub,2013-03-25 07:37:00,
2013-03-25 01:42:00,16.0,3.7,24.21,South,180,13.0,16.0,58,0.00,,,0.00,meteohub,2013-03-25 07:42:00,
2013-03-25 01:47:00,15.8,3.6,24.22,South,180,15.0,16.0,58,0.00,,,0.00,meteohub,2013-03-25 07:47:00,
2013-03-25 01:52:00,15.8,3.6,24.22,South,180,15.0,16.0,58,0.00,,,0.00,meteohub,2013-03-25 07:52:00,
2013-03-25 01:57:00,16.0,3.4,24.21,South,180,15.0,16.0,57,0.00,,,0.00,meteohub,2013-03-25 07:57:00,
2013-03-25 02:02:00,16.0,3.7,24.21,South,180,15.0,18.0,58,0.00,,,0.00,meteohub,2013-03-25 08:02:00,
2013-03-25 02:07:00,16.0,3.7,24.21,South,180,15.0,18.0,58,0.00,,,0.00,meteohub,2013-03-25 08:07:00,
2013-03-25 02:12:00,16.0,3.4,24.21,South,180,18.0,18.0,57,0.00,,,0.00,meteohub,2013-03-25 08:12:00,
2013-03-25 02:22:00,15.3,3.9,24.21,South,180,17.0,22.0,60,0.00,,,0.00,meteohub,2013-03-25 08:22:00,
2013-03-25 02:27:00,15.3,3.9,24.21,South,180,19.0,19.0,60,0.00,,,0.00,meteohub,2013-03-25 08:27:00,
2013-03-25 02:32:00,15.3,3.9,24.20,South,180,18.0,19.0,60,0.00,,,0.00,meteohub,2013-03-25 08:32:00,
2013-03-25 02:42:00,15.4,3.7,24.20,South,180,18.0,21.0,59,0.00,,,0.00,meteohub,2013-03-25 08:42:00,
2013-03-25 02:47:00,15.4,3.7,24.21,South,180,18.0,21.0,59,0.00,,,0.00,meteohub,2013-03-25 08:47:00,
2013-03-25 02:57:00,15.3,3.9,24.21,South,180,19.0,21.0,60,0.00,,,0.00,meteohub,2013-03-25 08:57:00,
2013-03-25 03:02:00,15.3,3.9,24.20,South,180,20.0,22.0,60,0.00,,,0.00,meteohub,2013-03-25 09:02:00,
2013-03-25 03:07:00,15.3,3.9,24.21,South,180,20.0,22.0,60,0.00,,,0.00,meteohub,2013-03-25 09:07:00,
2013-03-25 03:12:00,15.3,3.9,24.21,South,180,19.0,21.0,60,0.00,,,0.00,meteohub,2013-03-25 09:12:00,
2013-03-25 03:17:00,15.3,3.9,24.21,South,180,17.0,21.0,60,0.00,,,0.00,meteohub,2013-03-25 09:17:00,
2013-03-25 03:22:00,15.3,3.9,24.21,South,180,17.0,22.0,60,0.00,,,0.00,meteohub,2013-03-25 09:22:00,
2013-03-25 03:27:00,15.3,3.9,24.20,South,180,20.0,22.0,60,0.00,,,0.00,meteohub,2013-03-25 09:27:00,
2013-03-25 03:37:00,15.3,3.9,24.20,South,180,18.0,21.0,60,0.00,,,0.00,meteohub,2013-03-25 09:37:00,
2013-03-25 03:42:00,15.4,3.7,24.20,South,180,21.0,21.0,59,0.00,,,0.00,meteohub,2013-03-25 09:42:00,
2013-03-25 03:47:00,15.4,3.7,24.19,South,180,18.0,22.0,59,0.00,,,0.00,meteohub,2013-03-25 09:47:00,
2013-03-25 03:57:00,15.3,3.9,24.19,South,180,19.0,22.0,60,0.00,,,0.00,meteohub,2013-03-25 09:57:00,
2013-03-25 04:02:00,15.3,3.9,24.19,South,180,20.0,21.0,60,0.00,,,0.00,meteohub,2013-03-25 10:02:00,
2013-03-25 04:07:00,15.3,3.9,24.19,South,180,20.0,21.0,60,0.00,,,0.00,meteohub,2013-03-25 10:07:00,
2013-03-25 04:12:00,15.3,3.9,24.19,South,180,17.0,21.0,60,0.00,,,0.00,meteohub,2013-03-25 10:12:00,
2013-03-25 04:17:00,15.1,4.1,24.19,South,180,18.0,21.0,61,0.00,,,0.00,meteohub,2013-03-25 10:17:00,
2013-03-25 04:22:00,15.3,3.9,24.19,South,180,19.0,21.0,60,0.00,,,0.00,meteohub,2013-03-25 10:22:00,
2013-03-25 04:32:00,14.9,3.9,24.18,South,180,19.0,20.0,61,0.00,,,0.00,meteohub,2013-03-25 10:32:00,
2013-03-25 04:37:00,15.1,4.1,24.19,South,180,17.0,20.0,61,0.00,,,0.00,meteohub,2013-03-25 10:37:00,
2013-03-25 04:42:00,15.4,3.7,24.19,South,180,21.0,21.0,59,0.00,,,0.00,meteohub,2013-03-25 10:42:00,
2013-03-25 04:47:00,15.4,3.7,24.19,South,180,21.0,21.0,59,0.00,,,0.00,meteohub,2013-03-25 10:47:00,
2013-03-25 04:52:00,15.1,3.7,24.18,South,180,19.0,21.0,60,0.00,,,0.00,meteohub,2013-03-25 10:52:00,
2013-03-25 05:02:00,15.1,3.7,24.18,South,180,17.0,21.0,60,0.00,,,0.00,meteohub,2013-03-25 11:02:00,
2013-03-25 05:12:00,15.3,3.9,24.19,South,180,17.0,22.0,60,0.00,,,0.00,meteohub,2013-03-25 11:12:00,
2013-03-25 05:17:00,15.1,3.7,24.18,South,180,19.0,23.0,60,0.00,,,0.00,meteohub,2013-03-25 11:17:00,
2013-03-25 05:22:00,14.9,3.9,24.19,South,180,18.0,23.0,61,0.00,,,0.00,meteohub,2013-03-25 11:22:00,
2013-03-25 05:32:00,15.1,3.7,24.19,South,180,17.0,21.0,60,0.00,,,0.00,meteohub,2013-03-25 11:32:00,
2013-03-25 05:37:00,14.9,3.9,24.19,South,180,18.0,21.0,61,0.00,,,0.00,meteohub,2013-03-25 11:37:00,
2013-03-25 05:42:00,14.7,3.7,24.19,South,180,18.0,21.0,61,0.00,,,0.00,meteohub,2013-03-25 11:42:00,
2013-03-25 05:52:00,14.5,3.9,24.19,South,180,19.0,21.0,62,0.00,,,0.00,meteohub,2013-03-25 11:52:00,
2013-03-25 05:57:00,14.9,3.9,24.18,South,180,21.0,21.0,61,0.00,,,0.00,meteohub,2013-03-25 11:57:00,
2013-03-25 06:07:00,14.9,3.9,24.18,South,180,21.0,21.0,61,0.00,,,0.00,meteohub,2013-03-25 12:07:00,
2013-03-25 06:12:00,14.5,3.9,24.18,South,180,19.0,21.0,62,0.00,,,0.00,meteohub,2013-03-25 12:12:00,
2013-03-25 06:22:00,14.4,3.7,24.18,South,180,19.0,22.0,62,0.00,,,0.00,meteohub,2013-03-25 12:22:00,
2013-03-25 06:32:00,14.4,3.7,24.18,South,180,21.0,21.0,62,0.00,,,0.00,meteohub,2013-03-25 12:32:00,
2013-03-25 06:37:00,14.5,3.9,24.18,South,180,21.0,21.0,62,0.00,,,0.00,meteohub,2013-03-25 12:37:00,
2013-03-25 06:47:00,14.4,4.1,24.18,South,180,20.0,22.0,63,0.00,,,0.00,meteohub,2013-03-25 12:47:00,
2013-03-25 06:52:00,14.0,3.7,24.18,South,180,17.0,22.0,63,0.00,,,0.00,meteohub,2013-03-25 12:52:00,
2013-03-25 06:57:00,14.4,3.7,24.18,South,180,19.0,22.0,62,0.00,,,0.00,meteohub,2013-03-25 12:57:00,
2013-03-25 07:02:00,14.2,3.9,24.19,South,180,18.0,20.0,63,0.00,,,0.00,meteohub,2013-03-25 13:02:00,
2013-03-25 07:07:00,14.2,3.9,24.18,South,180,18.0,20.0,63,0.00,,,0.00,meteohub,2013-03-25 13:07:00,
2013-03-25 07:12:00,14.0,4.1,24.18,South,180,19.0,21.0,64,0.00,,,0.00,meteohub,2013-03-25 13:12:00,
2013-03-25 07:17:00,14.0,3.7,24.18,South,180,21.0,21.0,63,0.00,,,0.00,meteohub,2013-03-25 13:17:00,
2013-03-25 07:22:00,14.0,4.1,24.18,South,180,21.0,21.0,64,0.00,,,0.00,meteohub,2013-03-25 13:22:00,
2013-03-25 07:27:00,14.2,3.9,24.19,South,180,19.0,22.0,63,0.00,,,0.00,meteohub,2013-03-25 13:27:00,
2013-03-25 07:32:00,14.9,4.3,24.18,South,180,19.0,22.0,62,0.00,,,0.00,meteohub,2013-03-25 13:32:00,
2013-03-25 07:37:00,14.9,4.3,24.18,South,180,19.0,22.0,62,0.00,,,0.00,meteohub,2013-03-25 13:37:00,
2013-03-25 07:42:00,14.9,4.3,24.18,South,180,17.0,22.0,62,0.00,,,0.00,meteohub,2013-03-25 13:42:00,
2013-03-25 07:47:00,14.9,4.3,24.19,South,180,18.0,21.0,62,0.00,,,0.00,meteohub,2013-03-25 13:47:00,
2013-03-25 07:52:00,15.1,4.8,24.18,South,180,18.0,21.0,63,0.00,,,0.00,meteohub,2013-03-25 13:52:00,
2013-03-25 07:57:00,15.3,4.6,24.18,South,180,17.0,21.0,62,0.00,,,0.00,meteohub,2013-03-25 13:57:00,
2013-03-25 08:07:00,15.4,4.8,24.18,South,180,17.0,20.0,62,0.00,,,0.00,meteohub,2013-03-25 14:07:00,
2013-03-25 08:12:00,16.2,4.6,24.18,South,180,18.0,18.0,60,0.00,,,0.00,meteohub,2013-03-25 14:12:00,
2013-03-25 08:17:00,16.2,4.6,24.18,South,180,17.0,20.0,60,0.00,,,0.00,meteohub,2013-03-25 14:17:00,
2013-03-25 08:22:00,16.5,5.0,24.18,South,180,17.0,20.0,60,0.00,,,0.00,meteohub,2013-03-25 14:22:00,
2013-03-25 08:27:00,16.9,5.0,24.18,South,180,17.0,20.0,59,0.00,,,0.00,meteohub,2013-03-25 14:27:00,
2013-03-25 08:32:00,17.1,5.2,24.18,South,180,17.0,18.0,59,0.00,,,0.00,meteohub,2013-03-25 14:32:00,
2013-03-25 08:37:00,17.6,4.6,24.18,South,180,17.0,18.0,56,0.00,,,0.00,meteohub,2013-03-25 14:37:00,
2013-03-25 08:42:00,17.8,5.2,24.18,South,180,17.0,18.0,57,0.00,,,0.00,meteohub,2013-03-25 14:42:00,
2013-03-25 08:52:00,18.3,5.2,24.18,South,180,15.0,17.0,56,0.00,,,0.00,meteohub,2013-03-25 14:52:00,
2013-03-25 08:57:00,18.5,6.6,24.18,SE,135,15.0,17.0,59,0.00,,,0.00,meteohub,2013-03-25 14:57:00,
2013-03-25 09:02:00,18.5,5.4,24.18,South,180,14.0,17.0,56,0.00,,,0.00,meteohub,2013-03-25 15:02:00,
2013-03-25 09:12:00,19.0,5.5,24.18,South,180,18.0,18.0,55,0.00,,,0.00,meteohub,2013-03-25 15:12:00,
2013-03-25 09:17:00,19.4,5.5,24.18,South,180,17.0,18.0,54,0.00,,,0.00,meteohub,2013-03-25 15:17:00,
2013-03-25 09:27:00,19.6,6.4,24.18,South,180,15.0,19.0,56,0.00,,,0.00,meteohub,2013-03-25 15:27:00,
2013-03-25 09:37:00,20.7,6.3,24.17,South,180,15.0,18.0,53,0.00,,,0.00,meteohub,2013-03-25 15:37:00,
2013-03-25 09:42:00,20.8,7.2,24.17,South,180,17.0,18.0,55,0.00,,,0.00,meteohub,2013-03-25 15:42:00,
2013-03-25 09:47:00,21.2,7.9,24.17,South,180,21.0,21.0,56,0.00,,,0.00,meteohub,2013-03-25 15:47:00,
2013-03-25 09:57:00,20.8,8.4,24.17,South,180,22.0,25.0,58,0.00,,,0.00,meteohub,2013-03-25 15:57:00,
2013-03-25 10:02:00,21.2,7.5,24.17,South,180,22.0,25.0,55,0.00,,,0.00,meteohub,2013-03-25 16:02:00,
2013-03-25 10:07:00,21.2,7.5,24.17,South,180,22.0,25.0,55,0.00,,,0.00,meteohub,2013-03-25 16:07:00,
2013-03-25 10:12:00,21.2,7.5,24.17,South,180,21.0,23.0,55,0.00,,,0.00,meteohub,2013-03-25 16:12:00,
2013-03-25 10:17:00,21.7,8.4,24.17,South,180,23.0,23.0,56,0.00,,,0.00,meteohub,2013-03-25 16:17:00,
2013-03-25 10:27:00,22.1,8.1,24.17,South,180,20.0,23.0,54,0.00,,,0.00,meteohub,2013-03-25 16:27:00,
2013-03-25 10:32:00,22.3,7.7,24.17,South,180,18.0,23.0,53,0.00,,,0.00,meteohub,2013-03-25 16:32:00,
2013-03-25 10:42:00,22.8,9.1,24.17,South,180,21.0,23.0,55,0.00,,,0.00,meteohub,2013-03-25 16:42:00,
2013-03-25 10:47:00,23.0,8.8,24.17,South,180,18.0,23.0,54,0.00,,,0.00,meteohub,2013-03-25 16:47:00,
2013-03-25 10:52:00,23.2,9.0,24.17,South,180,21.0,21.0,54,0.00,,,0.00,meteohub,2013-03-25 16:52:00,
2013-03-25 10:57:00,23.4,7.9,24.17,South,180,21.0,21.0,51,0.00,,,0.00,meteohub,2013-03-25 16:57:00,
2013-03-25 11:02:00,23.5,8.4,24.17,South,180,23.0,23.0,52,0.00,,,0.00,meteohub,2013-03-25 17:02:00,
2013-03-25 11:12:00,24.6,8.2,24.17,South,180,21.0,23.0,49,0.00,,,0.00,meteohub,2013-03-25 17:12:00,
2013-03-25 11:22:00,25.7,10.6,24.16,South,180,17.0,25.0,52,0.00,,,0.00,meteohub,2013-03-25 17:22:00,
2013-03-25 11:32:00,26.2,8.8,24.16,South,180,23.0,23.0,47,0.00,,,0.00,meteohub,2013-03-25 17:32:00,
2013-03-25 11:37:00,26.6,9.1,24.16,South,180,27.0,27.0,47,0.00,,,0.00,meteohub,2013-03-25 17:37:00,
2013-03-25 11:42:00,27.0,9.9,24.16,South,180,22.0,27.0,48,0.00,,,0.00,meteohub,2013-03-25 17:42:00,
2013-03-25 11:52:00,27.3,8.2,24.16,South,180,26.0,27.0,44,0.00,,,0.00,meteohub,2013-03-25 17:52:00,
2013-03-25 12:02:00,27.7,8.1,24.15,South,180,24.0,27.0,43,0.00,,,0.00,meteohub,2013-03-25 18:02:00,
2013-03-25 12:12:00,29.1,10.9,24.16,South,180,22.0,27.0,46,0.00,,,0.00,meteohub,2013-03-25 18:12:00,
2013-03-25 12:17:00,28.9,9.7,24.15,South,180,26.0,27.0,44,0.00,,,0.00,meteohub,2013-03-25 18:17:00,
2013-03-25 12:22:00,29.7,10.9,24.15,South,180,24.0,27.0,45,0.00,,,0.00,meteohub,2013-03-25 18:22:00,
2013-03-25 12:27:00,29.8,10.6,24.15,South,180,24.0,27.0,44,0.00,,,0.00,meteohub,2013-03-25 18:27:00,
2013-03-25 12:32:00,30.4,9.5,24.16,SW,225,18.0,26.0,41,0.00,,,0.00,meteohub,2013-03-25 18:32:00,
2013-03-25 12:37:00,30.9,10.0,24.16,SW,225,18.0,26.0,41,0.00,,,0.00,meteohub,2013-03-25 18:37:00,
2013-03-25 12:47:00,30.9,8.2,24.15,SSW,203,21.0,23.0,38,0.00,,,0.00,meteohub,2013-03-25 18:47:00,
2013-03-25 12:52:00,30.7,8.8,24.15,South,180,20.0,21.0,39,0.00,,,0.00,meteohub,2013-03-25 18:52:00,
2013-03-25 13:02:00,31.5,9.9,24.15,SW,225,23.0,24.0,40,0.00,,,0.00,meteohub,2013-03-25 19:02:00,
2013-03-25 13:12:00,32.0,4.8,24.15,WNW,293,20.0,23.0,31,0.00,,,0.00,meteohub,2013-03-25 19:12:00,
2013-03-25 13:17:00,31.8,1.6,24.14,SW,225,23.0,23.0,27,0.00,,,0.00,meteohub,2013-03-25 19:17:00,
2013-03-25 13:22:00,32.2,5.0,24.14,SW,225,20.0,27.0,31,0.00,,,0.00,meteohub,2013-03-25 19:22:00,
2013-03-25 13:27:00,32.4,3.6,24.15,SW,225,21.0,27.0,29,0.00,,,0.00,meteohub,2013-03-25 19:27:00,
2013-03-25 13:37:00,32.4,1.2,24.14,SW,225,23.0,27.0,26,0.00,,,0.00,meteohub,2013-03-25 19:37:00,
2013-03-25 13:42:00,32.7,3.2,24.14,SW,225,17.0,27.0,28,0.00,,,0.00,meteohub,2013-03-25 19:42:00,
2013-03-25 13:47:00,32.9,4.1,24.14,SW,225,21.0,27.0,29,0.00,,,0.00,meteohub,2013-03-25 19:47:00,
2013-03-25 13:52:00,33.1,1.0,24.14,SW,225,21.0,23.0,25,0.00,,,0.00,meteohub,2013-03-25 19:52:00,
2013-03-25 14:02:00,33.4,1.4,24.14,West,270,17.0,24.0,25,0.00,,,0.00,meteohub,2013-03-25 20:02:00,
2013-03-25 14:07:00,33.4,1.4,24.14,West,270,17.0,22.0,25,0.00,,,0.00,meteohub,2013-03-25 20:07:00,
2013-03-25 14:12:00,33.8,3.4,24.14,SW,225,17.0,22.0,27,0.00,,,0.00,meteohub,2013-03-25 20:12:00,
2013-03-25 14:17:00,34.0,5.7,24.14,North,0,17.0,21.0,30,0.00,,,0.00,meteohub,2013-03-25 20:17:00,
2013-03-25 14:27:00,34.0,5.0,24.14,NW,315,12.0,23.0,29,0.00,,,0.00,meteohub,2013-03-25 20:27:00,
2013-03-25 14:32:00,33.1,0.1,24.14,West,270,15.0,23.0,24,0.00,,,0.00,meteohub,2013-03-25 20:32:00,
2013-03-25 14:37:00,33.8,2.5,24.14,West,270,16.0,23.0,26,0.00,,,0.00,meteohub,2013-03-25 20:37:00,
2013-03-25 14:42:00,34.2,5.2,24.13,West,270,16.0,22.0,29,0.00,,,0.00,meteohub,2013-03-25 20:42:00,
2013-03-25 14:47:00,34.5,6.3,24.14,West,270,11.0,22.0,30,0.00,,,0.00,meteohub,2013-03-25 20:47:00,
2013-03-25 14:52:00,33.8,2.5,24.13,West,270,15.0,22.0,26,0.00,,,0.00,meteohub,2013-03-25 20:52:00,
2013-03-25 14:57:00,34.3,4.6,24.14,West,270,12.0,17.0,28,0.00,,,0.00,meteohub,2013-03-25 20:57:00,
2013-03-25 15:02:00,34.5,4.8,24.13,SW,225,15.0,21.0,28,0.00,,,0.00,meteohub,2013-03-25 21:02:00,
2013-03-25 15:12:00,34.0,4.3,24.13,West,270,17.0,17.0,28,0.00,,,0.00,meteohub,2013-03-25 21:12:00,
2013-03-25 15:22:00,35.2,5.4,24.13,SW,225,17.0,17.0,28,0.00,,,0.00,meteohub,2013-03-25 21:22:00,
2013-03-25 15:27:00,35.2,5.4,24.13,West,270,15.0,17.0,28,0.00,,,0.00,meteohub,2013-03-25 21:27:00,
2013-03-25 15:32:00,35.4,3.9,24.13,SW,225,17.0,17.0,26,0.00,,,0.00,meteohub,2013-03-25 21:32:00,
2013-03-25 15:37:00,35.8,3.4,24.13,NW,315,15.0,17.0,25,0.00,,,0.00,meteohub,2013-03-25 21:37:00,
2013-03-25 15:42:00,36.0,4.5,24.13,NW,315,12.0,17.0,26,0.00,,,0.00,meteohub,2013-03-25 21:42:00,
2013-03-25 15:47:00,36.0,4.5,24.13,West,270,14.0,17.0,26,0.00,,,0.00,meteohub,2013-03-25 21:47:00,
2013-03-25 15:52:00,36.5,8.1,24.13,West,270,13.0,17.0,30,0.00,,,0.00,meteohub,2013-03-25 21:52:00,
2013-03-25 15:57:00,36.5,5.7,24.13,West,270,13.0,16.0,27,0.00,,,0.00,meteohub,2013-03-25 21:57:00,
2013-03-25 16:07:00,36.7,3.2,24.14,West,270,15.0,17.0,24,0.00,,,0.00,meteohub,2013-03-25 22:07:00,
2013-03-25 16:12:00,37.0,5.4,24.13,NW,315,10.0,17.0,26,0.00,,,0.00,meteohub,2013-03-25 22:12:00,
2013-03-25 16:17:00,37.4,6.4,24.13,West,270,13.0,15.0,27,0.00,,,0.00,meteohub,2013-03-25 22:17:00,
2013-03-25 16:22:00,37.0,5.4,24.13,NW,315,16.0,17.0,26,0.00,,,0.00,meteohub,2013-03-25 22:22:00,
2013-03-25 16:32:00,37.2,3.7,24.13,SW,225,11.0,17.0,24,0.00,,,0.00,meteohub,2013-03-25 22:32:00,
2013-03-25 16:37:00,36.9,7.5,24.13,West,270,18.0,18.0,29,0.00,,,0.00,meteohub,2013-03-25 22:37:00,
2013-03-25 16:47:00,36.9,8.2,24.12,West,270,19.0,20.0,30,0.00,,,0.00,meteohub,2013-03-25 22:47:00,
2013-03-25 16:52:00,37.0,5.4,24.12,West,270,21.0,21.0,26,0.00,,,0.00,meteohub,2013-03-25 22:52:00,
2013-03-25 16:57:00,36.7,6.6,24.12,NW,315,16.0,21.0,28,0.00,,,0.00,meteohub,2013-03-25 22:57:00,
2013-03-25 17:02:00,36.5,2.1,24.12,West,270,15.0,21.0,23,0.00,,,0.00,meteohub,2013-03-25 23:02:00,
2013-03-25 17:12:00,37.6,6.6,24.12,West,270,10.0,19.0,27,0.00,,,0.00,meteohub,2013-03-25 23:12:00,
2013-03-25 17:17:00,37.8,7.5,24.12,West,270,14.0,17.0,28,0.00,,,0.00,meteohub,2013-03-25 23:17:00,
2013-03-25 17:22:00,37.6,5.7,24.12,West,270,16.0,17.0,26,0.00,,,0.00,meteohub,2013-03-25 23:22:00,
2013-03-25 17:32:00,37.9,7.7,24.12,West,270,14.0,18.0,28,0.00,,,0.00,meteohub,2013-03-25 23:32:00,
2013-03-25 17:37:00,37.8,8.4,24.12,West,270,14.0,18.0,29,0.00,,,0.00,meteohub,2013-03-25 23:37:00,
2013-03-25 17:47:00,37.2,7.9,24.12,NW,315,15.0,18.0,29,0.00,,,0.00,meteohub,2013-03-25 23:47:00,
2013-03-25 17:52:00,37.9,7.7,24.12,West,270,11.0,18.0,28,0.00,,,0.00,meteohub,2013-03-25 23:52:00,
2013-03-25 17:57:00,37.6,9.7,24.12,SW,225,15.0,18.0,31,0.00,,,0.00,meteohub,2013-03-25 23:57:00,
2013-03-25 18:02:00,37.2,8.6,24.12,NW,315,14.0,18.0,30,0.00,,,0.00,meteohub,2013-03-26 00:02:00,
2013-03-25 18:07:00,37.2,8.6,24.11,NW,315,14.0,16.0,30,0.00,,,0.00,meteohub,2013-03-26 00:07:00,
2013-03-25 18:12:00,37.9,7.0,24.12,SW,225,6.0,16.0,27,0.00,,,0.00,meteohub,2013-03-26 00:12:00,
2013-03-25 18:17:00,38.3,6.4,24.11,SW,225,6.0,14.0,26,0.00,,,0.00,meteohub,2013-03-26 00:17:00,
2013-03-25 18:22:00,38.3,10.2,24.11,SW,225,6.0,14.0,31,0.00,,,0.00,meteohub,2013-03-26 00:22:00,
2013-03-25 18:27:00,38.3,6.4,24.12,SW,225,5.0,9.0,26,0.00,,,0.00,meteohub,2013-03-26 00:27:00,
2013-03-25 18:32:00,38.3,8.1,24.11,West,270,4.0,9.0,28,0.00,,,0.00,meteohub,2013-03-26 00:32:00,
2013-03-25 18:37:00,37.9,9.3,24.11,WNW,293,8.0,10.0,30,0.00,,,0.00,meteohub,2013-03-26 00:37:00,
2013-03-25 18:42:00,37.2,7.2,24.11,West,270,8.0,11.0,28,0.00,,,0.00,meteohub,2013-03-26 00:42:00,
2013-03-25 18:47:00,36.9,7.5,24.11,NW,315,10.0,11.0,29,0.00,,,0.00,meteohub,2013-03-26 00:47:00,
2013-03-25 18:52:00,36.5,7.2,24.11,West,270,8.0,11.0,29,0.00,,,0.00,meteohub,2013-03-26 00:52:00,
2013-03-25 18:57:00,36.5,7.2,24.11,West,270,7.0,13.0,29,0.00,,,0.00,meteohub,2013-03-26 00:57:00,
2013-03-25 19:02:00,36.3,4.6,24.11,WNW,293,9.0,13.0,26,0.00,,,0.00,meteohub,2013-03-26 01:02:00,
2013-03-25 19:07:00,36.3,4.6,24.11,WNW,293,9.0,11.0,26,0.00,,,0.00,meteohub,2013-03-26 01:07:00,
2013-03-25 19:12:00,35.1,4.5,24.11,NW,315,11.0,14.0,27,0.00,,,0.00,meteohub,2013-03-26 01:12:00,
2013-03-25 19:17:00,34.7,3.4,24.11,WNW,293,12.0,14.0,26,0.00,,,0.00,meteohub,2013-03-26 01:17:00,
2013-03-25 19:22:00,34.2,4.5,24.11,West,270,13.0,14.0,28,0.00,,,0.00,meteohub,2013-03-26 01:22:00,
2013-03-25 19:27:00,33.8,3.4,24.11,West,270,14.0,15.0,27,0.00,,,0.00,meteohub,2013-03-26 01:27:00,
2013-03-25 19:32:00,33.4,3.7,24.11,NW,315,15.0,15.0,28,0.00,,,0.00,meteohub,2013-03-26 01:32:00,
2013-03-25 19:37:00,33.1,3.6,24.10,West,270,12.0,16.0,28,0.00,,,0.00,meteohub,2013-03-26 01:37:00,
2013-03-25 19:42:00,33.1,2.7,24.11,NW,315,14.0,16.0,27,0.00,,,0.00,meteohub,2013-03-26 01:42:00,
2013-03-25 19:47:00,32.7,2.5,24.11,NW,315,12.0,15.0,27,0.00,,,0.00,meteohub,2013-03-26 01:47:00,
2013-03-25 19:57:00,31.6,3.7,24.11,WNW,293,10.0,14.0,30,0.00,,,0.00,meteohub,2013-03-26 01:57:00,
2013-03-25 20:02:00,31.5,3.6,24.11,NW,315,8.0,12.0,30,0.00,,,0.00,meteohub,2013-03-26 02:02:00,
2013-03-25 20:07:00,31.5,3.6,24.10,NW,315,8.0,11.0,30,0.00,,,0.00,meteohub,2013-03-26 02:07:00,
2013-03-25 20:12:00,31.6,3.0,24.10,NW,315,7.0,10.0,29,0.00,,,0.00,meteohub,2013-03-26 02:12:00,
2013-03-25 20:22:00,31.8,3.2,24.10,NW,315,8.0,8.0,29,0.00,,,0.00,meteohub,2013-03-26 02:22:00,
2013-03-25 20:27:00,31.6,3.7,24.10,West,270,11.0,11.0,30,0.00,,,0.00,meteohub,2013-03-26 02:27:00,
2013-03-25 20:32:00,31.5,3.6,24.10,NW,315,10.0,11.0,30,0.00,,,0.00,meteohub,2013-03-26 02:32:00,
2013-03-25 20:37:00,31.3,3.4,24.10,NW,315,8.0,11.0,30,0.00,,,0.00,meteohub,2013-03-26 02:37:00,
2013-03-25 20:42:00,31.1,3.9,24.10,NW,315,10.0,11.0,31,0.00,,,0.00,meteohub,2013-03-26 02:42:00,
2013-03-25 20:52:00,30.6,4.3,24.10,NW,315,8.0,11.0,32,0.00,,,0.00,meteohub,2013-03-26 02:52:00,
2013-03-25 20:57:00,30.4,4.6,24.10,NW,315,8.0,11.0,33,0.00,,,0.00,meteohub,2013-03-26 02:57:00,
2013-03-25 21:02:00,30.7,4.3,24.10,NW,315,8.0,8.0,32,0.00,,,0.00,meteohub,2013-03-26 03:02:00,
2013-03-25 21:07:00,30.7,4.3,24.10,NW,315,8.0,8.0,32,0.00,,,0.00,meteohub,2013-03-26 03:07:00,
2013-03-25 21:17:00,31.3,3.4,24.11,NW,315,7.0,8.0,30,0.00,,,0.00,meteohub,2013-03-26 03:17:00,
2013-03-25 21:22:00,31.3,3.4,24.10,NW,315,7.0,8.0,30,0.00,,,0.00,meteohub,2013-03-26 03:22:00,
2013-03-25 21:27:00,31.6,3.0,24.10,NW,315,6.0,8.0,29,0.00,,,0.00,meteohub,2013-03-26 03:27:00,
2013-03-25 21:37:00,30.7,4.3,24.10,West,270,5.0,8.0,32,0.00,,,0.00,meteohub,2013-03-26 03:37:00,
2013-03-25 21:42:00,30.6,4.8,24.10,West,270,6.0,8.0,33,0.00,,,0.00,meteohub,2013-03-26 03:42:00,
2013-03-25 21:47:00,30.4,4.6,24.10,West,270,8.0,8.0,33,0.00,,,0.00,meteohub,2013-03-26 03:47:00,
2013-03-25 21:52:00,30.6,4.8,24.11,West,270,6.0,8.0,33,0.00,,,0.00,meteohub,2013-03-26 03:52:00,
2013-03-25 21:57:00,30.9,5.2,24.10,NW,315,7.0,8.0,33,0.00,,,0.00,meteohub,2013-03-26 03:57:00,
2013-03-25 22:02:00,31.1,4.6,24.10,NW,315,8.0,8.0,32,0.00,,,0.00,meteohub,2013-03-26 04:02:00,
2013-03-25 22:07:00,31.1,4.6,24.10,NW,315,8.0,8.0,32,0.00,,,0.00,meteohub,2013-03-26 04:07:00,
2013-03-25 22:12:00,30.9,5.2,24.11,NW,315,5.0,8.0,33,0.00,,,0.00,meteohub,2013-03-26 04:12:00,
2013-03-25 22:22:00,30.6,4.8,24.10,NW,315,4.0,8.0,33,0.00,,,0.00,meteohub,2013-03-26 04:22:00,
2013-03-25 22:27:00,30.7,4.3,24.10,NW,315,6.0,7.0,32,0.00,,,0.00,meteohub,2013-03-26 04:27:00,
2013-03-25 22:32:00,30.7,4.3,24.10,NW,315,7.0,7.0,32,0.00,,,0.00,meteohub,2013-03-26 04:32:00,
2013-03-25 22:37:00,30.9,4.5,24.10,NW,315,7.0,7.0,32,0.00,,,0.00,meteohub,2013-03-26 04:37:00,
2013-03-25 22:42:00,30.9,3.7,24.10,NW,315,7.0,8.0,31,0.00,,,0.00,meteohub,2013-03-26 04:42:00,
2013-03-25 22:47:00,30.4,5.4,24.10,West,270,7.0,8.0,34,0.00,,,0.00,meteohub,2013-03-26 04:47:00,
2013-03-25 22:52:00,30.0,5.7,24.09,West,270,8.0,8.0,35,0.00,,,0.00,meteohub,2013-03-26 04:52:00,
2013-03-25 22:57:00,30.0,5.7,24.10,NW,315,8.0,9.0,35,0.00,,,0.00,meteohub,2013-03-26 04:57:00,
2013-03-25 23:02:00,30.2,5.9,24.10,NW,315,6.0,9.0,35,0.00,,,0.00,meteohub,2013-03-26 05:02:00,
2013-03-25 23:07:00,30.2,5.9,24.10,NW,315,6.0,9.0,35,0.00,,,0.00,meteohub,2013-03-26 05:07:00,
2013-03-25 23:12:00,30.4,4.6,24.10,WNW,293,5.0,8.0,33,0.00,,,0.00,meteohub,2013-03-26 05:12:00,
2013-03-25 23:17:00,30.6,4.8,24.10,NW,315,6.0,6.0,33,0.00,,,0.00,meteohub,2013-03-26 05:17:00,
2013-03-25 23:27:00,30.2,4.5,24.10,West,270,6.0,6.0,33,0.00,,,0.00,meteohub,2013-03-26 05:27:00,
2013-03-25 23:37:00,29.8,4.8,24.09,NW,315,9.0,9.0,34,0.00,,,0.00,meteohub,2013-03-26 05:37:00,
2013-03-25 23:42:00,29.8,4.8,24.10,West,270,8.0,9.0,34,0.00,,,0.00,meteohub,2013-03-26 05:42:00,
2013-03-25 23:47:00,30.2,4.5,24.09,West,270,8.0,9.0,33,0.00,,,0.00,meteohub,2013-03-26 05:47:00,
2013-03-25 23:52:00,30.4,4.1,24.09,NW,315,6.0,9.0,32,0.00,,,0.00,meteohub,2013-03-26 05:52:00,
2013-03-25 23:57:00,30.0,4.5,24.09,NW,315,8.0,9.0,33,0.00,,,0.00,meteohub,2013-03-26 05:57:00,